Location: Ladrillo (historical)
(32.8195°N, 117.2231°W)
Time: 16:32:47
(UTC+00:00)

SR - All Passes

Search period start: 26 February 2021 00:00
Search period end: 08 March 2021 00:00
Orbit: 573 x 882 km, 66.7° (Epoch: 25 February)

Date Brightness Start Highest point End Pass type
(mag) Time Alt. Az. Time Alt. Az. Time Alt. Az.
26 Feb - 03:18:24 10° S 03:23:02 46° ESE 03:28:07 10° NE visible
26 Feb - 05:01:42 10° W 05:05:23 20° NW 05:09:20 10° N visible
26 Feb - 12:04:25 10° N 12:08:16 17° NE 12:12:04 10° E visible
26 Feb - 13:45:01 10° NNW 13:50:56 70° WSW 13:56:36 10° SSE visible
27 Feb - 02:30:04 10° SSE 02:33:37 20° ESE 02:37:23 10° ENE visible
27 Feb - 04:10:38 10° SW 04:15:16 39° WNW 04:20:22 10° N visible
27 Feb - 12:55:17 10° NNW 13:01:09 59° ENE 13:06:48 10° SE visible
27 Feb - 14:39:02 10° WNW 14:42:40 17° WSW 14:46:13 10° SW daylight
28 Feb - 03:20:29 10° SSW 03:25:24 85° WNW 03:30:50 10° NNE visible
28 Feb - 05:07:00 10° WNW 05:08:25 11° NW 05:09:51 10° NNW visible
28 Feb - 12:05:58 10° N 12:11:10 30° NE 12:16:12 10° ESE visible
28 Feb - 13:47:56 10° NW 13:53:16 36° WSW 13:58:23 10° S visible
01 Mar - 02:31:11 10° S 02:35:47 42° ESE 02:40:49 10° NE visible
01 Mar - 04:14:12 10° WSW 04:18:05 21° NW 04:22:12 10° N visible
01 Mar - 11:17:19 10° NNE 11:20:57 16° NE 11:24:32 10° E visible
01 Mar - 12:57:44 10° NNW 13:03:41 75° WSW 13:09:21 10° SSE visible
02 Mar - 01:42:58 10° SSE 01:46:23 19° ESE 01:49:59 10° ENE daylight
02 Mar - 03:23:14 10° SW 03:27:58 43° WNW 03:33:10 10° NNE visible
02 Mar - 12:08:03 10° NNW 12:13:53 55° ENE 12:19:28 10° SE visible
02 Mar - 13:51:34 10° WNW 13:55:27 18° WSW 13:59:13 10° SW visible
03 Mar - 02:33:11 10° SSW 02:38:07 88° ESE 02:43:35 10° NNE visible
03 Mar - 04:19:07 10° WNW 04:21:04 12° NW 04:23:04 10° NNW visible
03 Mar - 11:18:47 10° N 11:23:52 28° NE 11:28:47 10° ESE visible
03 Mar - 13:00:37 10° NW 13:06:02 38° WSW 13:11:13 10° S visible
04 Mar - 01:43:58 10° S 01:48:31 39° ESE 01:53:30 10° NE daylight
04 Mar - 03:26:43 10° WSW 03:30:45 23° NW 03:35:04 10° N visible
04 Mar - 10:30:14 10° NNE 10:33:37 15° NE 10:36:58 10° E visible
04 Mar - 12:10:29 10° NNW 12:16:25 80° WSW 12:22:05 10° SSE visible
05 Mar - 00:55:54 10° SE 00:59:08 17° ESE 01:02:32 10° ENE daylight
05 Mar - 02:35:52 10° SW 02:40:41 46° WNW 02:45:57 10° NNE visible
05 Mar - 11:20:50 10° NNW 11:26:36 51° ENE 11:32:08 10° SE visible
05 Mar - 13:04:08 10° WNW 13:08:13 20° WSW 13:12:11 10° SSW visible
06 Mar - 01:45:53 10° SSW 01:50:51 82° ESE 01:56:20 10° NNE daylight
06 Mar - 03:31:22 10° WNW 03:33:43 13° NW 03:36:09 10° NNW visible
06 Mar - 10:31:37 10° N 10:36:34 27° NE 10:41:22 10° ESE visible
06 Mar - 12:13:17 10° NW 12:18:47 41° WSW 12:24:02 10° S visible
07 Mar - 00:56:45 10° S 01:01:16 36° ESE 01:06:11 10° NE daylight
07 Mar - 02:39:14 10° WSW 02:43:25 25° NW 02:47:55 10° N visible
07 Mar - 09:43:10 10° NNE 09:46:18 14° NE 09:49:22 10° E night (unlit)
07 Mar - 11:23:13 10° NNW 11:29:10 86° WSW 11:34:49 10° SSE visible
